Wind_Speed
53 53 54 53 53 52 51 51 50 50 50 48 45 44 43 42 42 43 43 40 38 40 49 58 61 60 61 62 61 58 53 52 55 53 52 56 60 63 66 64 59 55 52 51 50 49 48 49 51 51 48 47 46 45 44 44 44 46 47 47 47 48 49 49 50 48 47 46 45 45 47 46 45 45 46 47 47 48 48 49 48 48 47 46 45
53 53 54 53 53 52 52 51 51 51 50 47 45 43 43 42 42 43 43 41 38 38 43 52 61 64 62 59 60 60 55 52 53 52 50 52 56 61 64 65 63 57 52 51 52 51 50 50 51 52 51 48 47 46 45 43 44 46 49 49 49 49 50 50 48 46 46 46 46 48 49 48 47 47 48 49 49 49 50 50 49 49 49 48 48
53 53 54 53 52 52 52 51 51 51 50 47 44 43 42 42 42 42 42 40 38 37 39 45 54 63 61 52 50 56 58 54 51 50 47 46 50 57 62 65 65 60 54 52 52 52 52 52 53 53 53 53 51 50 48 47 47 49 51 53 52 49 47 47 47 46 47 48 48 48 49 49 49 49 51 51 50 50 51 50 50 50 49 50 50
52 53 54 53 52 52 52 52 52 51 50 47 44 42 42 42 41 41 41 39 38 35 37 42 47 55 59 51 41 43 52 55 54 51 48 45 46 51 57 61 62 60 56 53 52 53 53 52 53 54 55 56 55 53 51 51 51 53 55 56 54 49 46 47 48 48 50 51 49 49 49 50 50 51 53 52 50 50 51 49 48 49 50 50 51
52 53 53 53 53 53 53 53 52 51 50 48 45 42 41 42 41 40 40 39 37 35 35 40 44 49 54 53 45 39 42 51 58 57 53 49 47 49 52 56 58 58 57 55 55 56 55 54 53 54 56 56 55 54 54 54 54 54 55 55 52 49 48 50 50 49 50 53 51 51 51 50 51 53 53 52 50 50 51 50 48 49 50 50 50
52 52 53 53 53 54 54 53 52 51 51 49 46 43 41 41 40 39 39 38 37 35 34 38 43 47 50 51 51 48 44 48 58 62 56 50 48 49 48 50 54 56 57 58 58 57 56 57 55 54 57 59 57 55 54 55 55 54 53 52 51 50 50 52 50 48 50 53 53 53 53 52 53 55 54 52 51 51 52 52 51 50 49 49 50
53 53 54 54 54 54 54 54 53 52 51 50 48 45 42 40 39 39 39 38 37 35 34 36 41 47 51 51 51 54 54 54 58 60 56 50 47 46 46 46 46 48 53 60 63 60 57 58 58 56 59 61 60 58 56 55 54 54 54 54 53 53 52 52 52 50 51 53 54 55 55 54 56 57 56 55 53 53 54 54 53 53 53 53 54
54 54 55 55 54 54 54 54 53 52 52 51 50 48 44 41 39 38 38 38 37 36 34 36 40 45 51 54 53 56 60 61 60 59 56 53 47 42 44 46 44 43 47 56 64 65 62 60 58 58 60 62 60 59 57 55 54 55 57 57 56 55 54 54 54 53 53 53 54 56 57 58 59 59 59 58 55 55 56 55 55 56 58 58 58
55 56 56 55 55 55 55 54 53 53 53 52 51 50 48 44 40 39 38 37 37 36 35 35 38 44 50 54 55 56 62 66 66 62 58 56 51 44 43 47 45 42 43 48 57 66 68 63 59 59 61 62 60 58 57 55 53 55 57 58 57 54 54 56 55 54 54 53 53 56 60 62 62 61 60 59 58 58 58 57 57 59 60 59 60
57 57 57 56 56 56 56 55 54 54 54 54 53 52 50 47 43 40 39 38 37 36 35 35 37 42 48 53 55 56 62 67 69 67 62 59 56 50 48 50 48 44 44 46 51 61 66 63 60 59 62 64 63 61 60 57 55 55 56 57 55 53 54 57 57 55 55 53 52 55 59 62 64 62 60 60 60 60 60 60 60 61 61 61 61
58 58 58 58 57 57 57 56 55 55 55 55 54 54 53 50 47 44 41 39 38 36 35 35 37 41 46 52 55 57 61 66 70 70 67 63 59 54 53 55 54 50 48 47 50 57 60 58 55 55 59 62 64 64 63 61 59 58 59 59 57 56 57 58 57 56 55 54 53 55 58 61 63 63 63 63 63 63 63 64 62 62 63 63 62
59 59 59 59 59 59 58 57 57 56 56 56 56 56 55 52 51 48 45 41 39 38 36 35 36 40 44 50 55 57 61 65 68 70 70 66 61 57 55 56 57 57 55 52 51 55 60 59 56 56 57 57 59 61 62 61 61 61 62 61 60 59 59 59 59 59 59 57 55 55 56 59 61 63 65 67 67 66 67 66 64 63 64 64 64
60 60 60 60 61 60 60 59 59 58 57 57 57 58 57 55 53 52 49 46 42 40 38 36 36 38 43 48 53 58 61 65 66 68 70 69 65 61 58 56 56 58 59 57 55 55 59 62 62 62 59 55 54 57 59 61 62 62 61 59 59 60 61 62 63 64 63 62 59 56 56 58 61 63 66 69 70 70 70 68 66 65 65 66 66
61 61 62 62 62 62 62 61 60 59 59 59 59 59 58 57 55 54 52 50 47 44 41 39 37 38 41 47 52 56 61 65 66 66 68 71 71 68 64 62 61 60 59 59 58 57 59 62 63 63 62 58 56 56 60 63 64 64 63 59 58 59 61 62 62 62 62 61 59 59 59 61 63 65 68 70 71 72 72 70 68 66 66 67 68
62 62 63 63 64 64 63 63 62 62 61 61 61 61 60 59 57 56 55 53 51 48 45 42 39 38 40 44 51 55 59 63 66 66 66 71 75 75 71 67 64 63 61 60 59 59 60 61 62 62 61 60 60 59 61 63 64 64 65 64 62 61 61 61 59 58 59 59 59 61 61 62 64 67 68 69 71 71 71 70 69 68 68 69 70
64 64 64 65 65 65 65 65 65 64 64 64 63 63 62 61 60 59 57 56 54 52 50 46 43 40 40 42 48 55 58 60 64 66 65 67 73 79 79 74 68 63 61 61 60 59 60 59 58 58 58 58 59 59 59 60 61 61 63 65 66 65 65 64 62 62 63 64 64 64 63 63 66 67 67 69 71 72 70 69 69 71 71 71 71
66 66 67 67 67 67 67 67 67 67 67 66 66 65 64 64 63 62 60 59 57 56 53 50 47 43 42 42 45 52 58 60 61 64 64 64 68 75 80 81 75 66 61 60 59 60 62 60 56 57 57 54 53 54 56 58 60 61 62 64 65 66 67 68 68 68 69 69 67 66 65 64 65 67 68 70 72 72 71 71 74 76 74 71 72
67 67 68 69 69 69 69 69 70 70 69 69 68 68 67 66 65 64 63 61 60 59 56 54 51 47 44 43 45 49 55 60 61 62 63 64 65 69 75 80 80 73 65 61 60 61 63 62 59 58 57 54 52 53 57 59 60 61 61 62 64 66 67 68 70 71 71 69 67 67 66 65 65 67 70 71 72 72 72 74 79 79 75 72 72
68 69 70 71 71 71 71 72 72 71 71 71 70 70 69 68 67 66 65 64 63 61 60 57 55 52 47 45 45 47 52 57 61 62 62 62 63 66 71 76 80 78 71 64 62 62 62 63 63 61 58 59 60 59 59 60 62 63 63 64 65 65 65 65 65 65 66 66 67 68 68 67 66 67 69 71 73 74 74 75 78 78 75 74 72
70 71 72 72 73 73 73 73 73 73 73 73 72 72 71 70 69 68 67 66 65 64 63 61 58 56 52 48 46 47 50 53 59 62 63 61 61 64 67 72 77 79 75 69 64 61 60 61 63 63 61 62 64 64 64 64 64 65 66 67 65 63 63 63 61 59 61 63 65 66 65 65 65 66 68 71 72 73 73 73 74 75 75 74 72
71 72 73 73 74 74 74 74 75 75 75 75 74 74 73 72 72 71 69 68 68 66 65 64 62 59 56 52 49 48 50 52 56 62 64 62 60 62 65 69 73 76 76 73 66 61 60 62 64 63 63 64 65 66 67 66 65 64 63 63 62 61 61 61 60 60 61 62 63 63 62 62 64 66 68 70 71 71 71 72 73 73 73 73 73
72 72 73 73 74 74 75 75 76 76 76 76 76 75 75 74 74 73 72 71 70 69 68 67 65 62 60 57 52 49 50 52 55 60 64 64 61 60 62 66 70 72 74 73 69 64 64 67 66 64 65 65 66 67 66 62 60 61 59 58 59 59 59 60 61 62 63 63 64 65 65 66 68 69 70 70 70 70 70 70 72 72 72 74 76
74 73 73 74 75 75 76 76 77 77 77 77 77 77 77 77 76 76 75 74 73 72 71 69 68 66 63 60 56 51 50 52 55 58 63 66 63 61 61 64 68 70 71 72 71 67 66 69 71 70 69 69 68 68 66 63 61 61 60 60 60 59 59 61 62 64 66 68 69 70 72 73 74 75 75 74 73 71 70 71 72 73 74 76 78
75 75 75 75 76 77 77 78 78 79 79 79 79 79 79 79 78 78 77 76 75 74 73 71 70 69 66 63 60 55 51 52 56 58 61 66 66 63 62 63 65 69 70 71 73 71 69 72 76 76 75 74 72 70 68 67 66 66 66 66 64 63 62 63 65 67 69 71 72 74 76 77 78 79 79 78 77 75 74 74 75 76 76 77 79
76 76 76 77 77 78 79 79 79 79 80 80 80 80 80 79 79 78 77 77 75 74 73 72 70 69 67 64 61 58 54 53 56 59 60 65 69 67 64 63 64 68 70 72 73 73 71 73 77 79 78 78 78 76 73 72 70 68 68 68 68 68 69 69 70 71 72 73 74 75 76 77 78 78 78 77 77 77 76 76 77 77 78 79 81
77 77 77 78 78 78 79 79 79 79 79 78 78 78 77 76 75 75 74 73 72 71 70 69 68 67 66 64 61 59 56 54 57 60 61 64 69 71 68 65 65 67 70 72 73 74 72 72 75 81 82 81 80 79 77 76 74 72 70 69 69 69 71 71 71 72 72 73 73 73 73 73 73 73 74 74 75 76 77 78 78 79 80 81 82
76 77 77 77 77 77 77 76 76 76 75 75 74 74 73 72 72 71 70 69 69 68 67 67 66 65 64 62 60 59 58 56 57 60 62 63 68 73 72 69 67 67 69 72 73 75 74 72 73 77 82 84 84 83 82 80 78 77 75 73 71 70 70 72 72 72 72 72 72 72 73 72 73 73 74 75 76 77 78 80 82 82 83 83 85
74 74 74 74 74 74 74 74 74 74 74 73 73 73 72 72 71 70 70 69 69 69 68 67 67 66 65 63 61 60 59 58 57 60 63 64 67 72 75 73 70 69 69 71 73 75 76 76 75 75 77 81 84 85 85 84 82 81 80 78 75 72 70 71 73 75 75 75 75 76 76 76 76 76 77 77 79 80 80 82 83 84 84 85 86
72 72 72 72 73 73 73 73 72 72 72 72 71 70 70 70 69 68 67 67 67 67 68 68 68 68 68 67 65 63 61 61 59 60 63 65 66 71 76 77 74 72 71 71 72 75 78 79 78 77 77 78 80 82 84 85 85 85 85 84 82 78 75 73 74 76 77 78 78 78 78 78 78 78 79 79 80 81 82 82 83 84 84 85 85
71 71 71 71 70 70 69 68 67 66 66 65 65 65 64 64 63 62 62 62 62 62 63 64 65 66 67 68 68 67 65 64 63 62 63 65 66 68 75 79 79 76 74 73 73 75 78 80 81 81 79 78 79 80 82 83 85 87 89 89 87 85 81 79 78 78 78 79 79 79 79 78 78 78 79 79 79 79 80 80 81 82 83 83 84
68 67 67 66 65 64 63 62 61 61 60 60 60 60 60 59 58 58 57 58 58 59 59 59 60 61 63 65 67 68 68 67 67 66 65 65 66 68 72 79 82 81 78 76 76 76 77 79 82 84 83 81 80 81 82 83 84 86 88 90 90 89 87 85 83 82 81 81 81 81 81 80 80 79 79 78 78 78 78 78 79 80 80 81 82
62 62 61 60 60 59 58 57 57 56 56 55 55 56 56 56 55 54 53 53 54 55 56 57 57 58 59 61 63 65 67 67 68 69 68 68 68 68 70 76 83 85 83 80 79 79 79 80 81 83 85 85 84 83 84 85 86 86 87 87 88 90 90 88 87 86 85 84 83 83 83 83 82 82 81 79 78 78 78 79 80 80 80 81 81
57 57 57 56 56 56 55 54 54 53 52 52 52 52 52 53 53 52 52 51 51 51 53 54 55 56 57 59 59 61 63 65 66 68 70 70 70 70 71 74 80 87 88 85 83 82 82 82 81 82 84 87 87 86 86 87 88 89 89 89 89 90 90 90 90 89 88 87 86 86 86 86 86 85 84 83 82 81 81 82 82 83 83 84 84
52 52 52 53 53 53 53 53 52 50 49 48 47 47 48 49 49 50 50 50 49 49 50 51 52 53 55 57 58 58 59 61 63 65 68 70 71 72 73 74 78 85 90 91 88 86 85 85 84 83 83 85 88 89 89 89 90 91 91 91 91 91 91 91 91 91 90 90 90 89 89 88 88 88 88 88 87 85 85 85 86 87 88 89 90
49 49 48 48 48 49 49 50 50 49 48 46 44 43 43 44 46 47 47 48 48 48 48 48 49 50 52 55 57 58 58 59 60 62 65 67 69 71 73 75 78 83 90 94 93 90 89 88 88 87 86 86 87 89 90 91 92 92 92 92 92 92 92 92 92 91 91 92 92 92 91 91 90 90 90 90 90 90 90 90 90 91 92 93 94
46 45 45 45 44 44 45 45 46 47 47 46 45 43 41 40 41 42 44 45 45 46 47 47 47 47 48 50 53 56 58 58 59 59 61 64 67 68 71 75 78 81 87 93 97 96 93 92 91 91 90 89 89 90 91 93 94 94 94 94 93 93 93 93 93 93 92 92 92 92 93 93 92 92 93 93 93 94 94 94 95 95 96 96 97
43 43 43 43 42 41 41 41 41 42 43 43 44 43 42 41 40 39 40 41 42 43 44 44 45 46 46 47 49 52 54 57 58 59 59 61 64 66 69 73 78 81 85 90 97 99 98 97 95 95 94 93 92 91 92 94 95 96 96 96 95 95 94 94 94 94 94 94 94 94 94 94 94 94 95 95 96 96 97 97 97 97 97 98 98
42 41 41 41 40 39 38 37 36 36 37 38 39 40 40 40 40 39 38 38 38 39 40 41 43 44 45 45 47 48 50 53 55 57 58 59 61 64 66 69 75 80 84 88 94 99 102 101 99 99 98 97 96 95 94 95 96 97 98 98 98 97 97 96 96 95 95 95 96 96 96 96 96 96 96 96 97 97 98 98 98 98 98 98 98
40 40 40 39 39 38 37 36 34 33 33 33 33 34 35 36 37 38 38 37 37 37 38 38 40 42 43 44 45 46 48 50 52 54 56 58 60 62 64 67 70 76 82 86 90 96 102 104 104 103 102 101 100 99 98 97 97 98 99 100 100 100 100 99 99 99 98 98 98 98 98 99 99 99 99 98 99 99 99 99 99 100 100 100 100
39 38 38 37 37 36 36 36 35 34 33 32 31 31 32 33 33 34 35 36 36 36 37 37 37 38 41 42 43 44 46 48 49 51 53 55 58 60 63 65 67 71 77 83 88 92 98 103 106 107 106 105 104 104 103 102 101 100 101 101 102 102 102 102 102 102 101 101 100 100 100 100 101 101 101 102 102 102 102 102 103 103 103 104 104
36 36 36 36 35 35 35 35 35 34 34 33 32 32 32 32 31 31 32 33 34 34 35 36 36 37 38 40 42 43 44 46 48 49 51 52 55 57 60 63 66 68 72 77 83 88 93 98 104 108 109 109 108 107 107 106 105 105 104 103 103 104 104 105 105 105 105 104 104 103 103 103 103 103 104 104 105 105 106 106 106 107 107 107 107
35 35 35 34 34 34 34 34 35 34 34 34 34 33 32 32 31 31 30 30 31 32 33 34 36 36 36 38 39 41 42 44 46 48 49 51 53 55 57 59 63 66 69 72 77 83 88 93 98 104 108 111 112 111 111 110 110 109 108 108 107 106 107 107 107 107 107 107 107 107 107 106 106 105 105 106 106 106 107 107 108 108 109 109 110
33 33 34 34 34 34 34 34 34 34 34 35 34 34 33 33 33 32 31 31 30 30 31 32 33 35 36 36 37 39 40 42 44 46 48 50 51 53 55 57 59 62 66 69 73 77 82 87 92 97 102 108 112 114 114 114 113 113 112 112 111 111 110 110 110 110 110 110 110 110 110 110 109 109 108 108 108 108 108 108 109 109 110 111 112
32 33 33 34 34 34 34 34 34 34 34 34 34 34 34 34 34 33 33 33 32 31 30 30 31 32 34 35 36 37 38 39 41 44 46 48 50 52 53 55 57 59 62 65 69 72 76 80 85 90 95 100 106 110 114 116 117 116 116 115 115 115 115 115 114 114 113 113 113 113 113 113 113 113 113 113 113 112 112 112 112 112 112 112 112
32 32 32 33 33 33 34 33 33 33 33 33 33 33 33 33 34 34 33 33 33 32 31 30 29 30 31 32 34 35 36 37 39 41 43 46 48 50 52 54 56 58 59 62 64 67 71 75 79 83 88 92 97 102 107 112 115 118 118 118 118 118 118 118 118 118 118 117 117 117 117 117 117 117 117 117 117 117 117 117 117 116 116 116 115
31 31 32 32 33 33 33 34 33 34 33 33 33 32 32 32 33 33 34 34 34 33 33 32 31 30 30 30 31 33 34 36 37 38 40 42 45 48 50 52 54 56 58 60 61 63 66 69 73 77 81 85 89 93 98 102 107 112 115 118 119 120 120 120 120 120 120 120 120 120 120 120 120 120 120 120 120 120 120 120 120 120 120 120 120
31 31 31 32 32 33 33 34 34 34 34 34 33 33 33 32 32 32 33 33 33 33 34 33 33 32 32 31 31 31 31 33 35 36 38 39 41 43 47 50 52 54 56 58 60 62 64 66 68 71 74 78 82 86 90 94 98 102 106 110 113 116 119 120 121 121 121 121 121 121 121 121 121 121 122 122 122 122 123 123 123 123 124 124 124
30 31 31 31 32 33 33 34 34 34 34 34 34 34 34 33 33 32 32 32 32 33 33 33 33 33 33 32 32 32 31 31 31 33 35 37 38 40 42 45 48 51 53 56 58 60 62 64 65 67 70 72 76 79 83 86 90 94 97 101 104 107 111 113 116 118 119 120 120 121 121 121 121 121 121 122 122 122 122 123 123 123 124 124 124
30 30 31 31 32 32 33 34 35 35 35 35 35 35 34 34 34 34 33 33 32 32 32 32 32 33 33 33 33 33 33 32 31 30 31 34 36 38 39 41 43 46 49 52 55 57 59 61 63 65 67 69 71 74 76 79 83 86 90 93 96 99 102 105 107 110 112 113 115 116 117 118 118 119 119 119 120 120 120 120 120 121 121 121 122
30 30 31 32 32 32 33 33 34 35 36 36 36 36 36 35 34 34 34 34 34 33 33 32 32 32 32 33 33 33 33 34 33 31 30 31 33 35 37 39 40 42 44 47 51 53 56 58 60 63 65 67 69 70 72 74 77 80 83 86 89 92 94 97 100 102 104 106 107 109 110 111 112 113 114 114 115 115 116 116 117 117 117 118 118
30 31 31 32 33 33 34 34 34 35 36 36 37 37 37 37 36 36 35 35 35 35 34 34 33 32 32 33 33 33 33 34 34 34 33 31 31 32 34 36 38 40 41 43 45 48 51 54 57 59 61 64 66 68 70 72 73 75 78 80 82 85 88 90 92 95 97 99 101 102 104 105 106 107 108 109 110 111 111 112 112 113 113 114 114
Wind_Direction
268 270 272 274 277 279 281 282 284 286 288 290 292 293 293 293 295 296 295 290 280 263 246 237 235 234 232 233 235 235 234 233 230 232 239 242 241 239 236 235 236 238 240 243 243 243 242 241 240 241 244 249 252 254 254 254 255 255 257 259 262 266 269 273 276 278 277 274 276 283 288 291 294 296 295 298 302 305 307 307 306 305 304 304 305
268 270 272 274 277 278 280 282 284 286 288 290 293 294 295 295 297 298 298 294 285 271 254 241 236 235 236 237 238 236 234 234 231 232 240 244 243 242 239 235 234 235 237 241 243 244 243 242 241 241 243 247 250 253 252 251 253 256 258 260 262 266 269 272 275 278 277 276 278 282 286 289 293 294 293 295 299 301 304 305 305 305 304 303 303
268 271 272 274 277 278 280 281 283 285 287 290 292 294 296 296 297 299 299 296 289 276 260 247 239 236 237 240 244 241 234 231 230 231 239 245 243 242 241 238 235 234 235 238 242 244 244 243 242 242 244 247 250 252 251 249 250 253 257 260 263 266 268 270 273 278 280 280 280 281 283 287 291 292 292 294 296 299 301 303 302 303 304 304 302
269 271 273 274 276 278 279 280 282 284 287 289 292 294 296 296 297 299 300 297 292 281 264 252 244 239 237 236 241 242 234 228 228 230 237 245 243 240 240 239 237 234 234 236 240 242 242 242 242 243 245 248 249 250 249 248 249 252 256 261 264 265 266 268 271 275 277 278 279 281 283 286 290 290 290 292 294 296 299 300 300 302 304 303 302
269 271 273 274 276 277 278 280 282 284 287 289 291 293 295 296 297 299 301 299 294 285 270 255 247 243 238 231 228 230 229 227 227 229 235 241 241 240 240 239 237 235 234 235 237 239 239 240 241 241 244 246 248 248 248 249 251 253 256 260 262 263 264 266 269 272 275 277 279 282 284 286 287 287 288 291 292 293 296 297 298 301 302 302 301
269 271 272 274 275 277 278 280 282 284 287 289 290 293 294 296 297 299 301 300 295 288 276 259 248 243 240 232 224 221 222 224 226 227 231 235 237 239 239 238 238 237 235 234 235 236 237 239 240 241 242 244 246 247 248 249 252 254 254 255 256 258 261 264 267 270 274 278 282 284 285 285 284 284 286 289 289 291 293 294 296 299 301 300 300
269 271 272 273 275 276 278 280 282 284 286 289 290 292 293 294 296 298 300 300 298 291 280 265 252 243 239 235 227 221 220 223 224 225 226 227 231 235 235 234 235 237 238 236 233 232 235 237 239 241 242 243 245 247 247 249 251 252 252 251 252 255 259 264 266 268 273 279 282 283 284 284 283 283 285 286 288 290 291 292 294 297 298 298 298
271 271 272 273 274 276 277 279 281 283 286 288 290 291 292 293 295 297 298 299 298 294 285 271 256 245 240 237 232 224 221 223 225 223 221 221 224 228 231 232 233 236 241 241 236 232 232 234 236 239 241 243 244 246 247 248 249 251 251 251 252 255 259 263 265 267 271 276 279 281 282 282 281 281 283 284 287 289 289 291 293 296 297 297 296
271 271 272 273 274 276 277 279 281 283 285 287 289 290 292 292 293 294 296 297 298 295 289 278 263 249 241 238 236 229 223 223 224 222 219 219 221 226 230 231 232 234 238 242 239 234 233 234 236 239 241 242 244 245 246 247 248 250 252 253 255 256 258 261 264 265 266 270 276 279 279 279 279 280 281 283 286 288 288 289 292 294 296 295 295
271 272 273 274 275 275 277 278 280 282 283 285 288 289 290 292 292 293 293 294 296 295 290 282 270 256 245 239 237 232 227 225 224 222 220 221 223 228 232 230 229 230 233 237 237 234 234 235 236 239 240 241 242 244 246 247 249 250 252 254 256 257 259 261 263 263 265 269 274 276 275 275 277 279 280 281 283 286 287 288 291 293 293 293 293
272 273 274 274 275 276 276 278 279 280 282 284 286 288 289 291 291 292 292 292 292 293 291 285 274 263 251 241 237 233 230 229 227 225 224 224 225 228 231 232 231 231 232 236 236 233 232 232 234 237 239 240 241 244 247 250 251 252 253 255 256 258 259 261 261 263 266 270 273 274 272 271 273 276 277 277 278 282 285 288 290 291 290 291 291
272 272 273 274 275 276 276 277 278 280 281 283 285 286 287 289 291 291 291 291 290 290 290 286 277 266 257 247 239 234 232 231 231 231 228 226 226 227 228 230 232 233 234 236 237 234 230 229 231 235 237 238 240 243 246 248 251 253 255 257 257 257 258 259 261 264 268 269 271 271 269 267 269 271 273 274 276 280 284 286 287 288 288 289 290
272 273 273 274 275 276 276 278 278 279 280 282 283 285 286 288 289 290 290 290 290 288 287 286 280 270 260 252 244 237 234 233 233 234 232 228 225 226 226 227 230 233 235 236 238 237 232 230 232 235 237 238 240 243 245 247 249 251 254 256 256 256 258 260 263 265 265 265 266 267 268 269 270 269 270 273 276 280 283 285 285 286 287 288 288
272 273 274 274 275 276 276 277 278 279 279 280 281 283 284 286 287 288 289 289 289 288 286 284 282 274 263 255 248 241 236 234 234 235 234 230 226 225 227 229 230 233 235 236 238 239 235 233 233 234 236 237 240 245 248 249 250 251 252 254 254 254 255 258 260 260 259 259 261 264 269 272 272 268 268 272 276 278 281 282 283 283 285 286 288
272 273 274 274 275 275 276 277 277 278 278 279 280 281 283 284 285 286 288 288 287 287 285 283 281 277 268 258 251 246 240 236 235 236 236 234 230 228 228 231 232 234 236 236 237 239 238 237 236 235 235 237 241 246 249 250 250 251 251 251 251 250 250 252 253 253 254 258 261 264 268 270 270 268 268 270 273 274 276 277 278 280 283 286 288
272 272 273 274 274 275 276 276 277 278 278 279 280 281 282 283 284 285 286 286 286 285 284 282 280 277 273 263 254 248 244 240 237 237 238 237 234 231 231 233 234 234 236 237 237 238 238 238 237 235 234 237 240 244 247 249 250 251 251 250 249 248 248 249 250 251 256 262 265 266 267 269 269 270 269 268 269 271 272 273 274 277 281 284 286
274 274 274 274 275 275 276 276 277 278 279 279 280 281 282 282 283 284 284 284 284 283 282 281 280 277 274 269 259 250 245 242 239 238 238 239 238 235 233 233 233 234 235 236 236 236 236 236 234 231 230 235 239 241 243 245 247 249 250 251 251 251 250 251 252 256 261 266 267 267 268 268 268 268 267 267 268 270 272 273 273 276 280 282 284
275 275 276 276 276 276 277 277 278 278 279 280 280 281 281 282 282 282 282 282 282 281 280 280 279 277 273 270 264 255 247 243 241 239 238 238 239 239 236 234 233 233 234 234 235 235 235 234 232 229 229 233 238 239 241 243 245 248 249 250 253 255 256 256 257 260 263 266 266 267 267 266 265 263 263 264 266 267 269 271 274 277 280 282 283
275 276 276 276 277 277 277 278 278 279 279 280 280 280 280 281 281 280 281 280 280 280 279 279 278 276 273 269 266 260 252 244 241 240 239 238 239 239 238 235 233 233 233 234 234 235 236 235 233 231 232 234 237 239 241 242 245 248 249 251 253 255 257 258 258 260 262 264 264 264 264 263 262 261 260 261 262 264 267 270 274 277 280 282 284
275 275 276 276 276 277 277 278 278 278 278 279 279 279 279 279 279 279 279 279 279 278 278 278 277 276 273 269 266 262 257 248 242 239 239 238 238 239 238 236 234 233 233 233 234 234 235 234 232 232 233 235 237 240 242 243 246 249 252 254 254 253 254 255 257 259 261 262 261 260 259 259 260 260 260 261 263 265 268 270 272 275 278 280 282
276 276 275 275 275 276 276 276 277 277 277 277 278 278 278 278 278 278 277 277 277 277 277 277 276 275 273 270 266 262 258 252 244 239 238 238 238 239 238 237 234 233 232 233 233 233 231 229 229 230 232 234 236 238 241 243 246 250 253 253 252 252 254 255 257 258 259 258 256 255 255 256 258 259 261 262 264 266 267 269 270 273 275 278 280
278 277 276 275 275 275 275 276 276 276 276 277 277 277 277 277 277 277 277 276 276 276 276 275 275 274 272 270 266 262 257 254 248 241 237 237 237 238 238 237 235 233 231 231 232 231 229 227 227 229 231 233 235 237 238 240 244 249 250 249 249 251 254 255 256 256 255 254 253 254 255 257 260 262 265 267 268 268 269 270 271 273 275 277 278
279 278 277 276 276 275 275 275 276 276 276 276 276 276 276 276 276 276 276 276 275 275 275 274 273 272 271 269 266 261 256 252 249 243 238 235 235 236 237 238 236 233 231 231 230 229 228 226 226 228 230 232 235 237 237 237 241 245 245 245 247 249 251 253 255 255 255 254 254 255 257 259 262 264 267 269 271 272 272 273 273 275 277 278 278
279 278 278 277 276 276 276 276 275 275 275 275 275 275 275 275 275 275 274 274 274 273 272 272 272 271 270 268 265 260 254 249 247 244 239 235 234 234 235 236 236 233 231 230 230 229 228 226 225 227 230 232 235 238 239 238 240 243 245 246 248 249 250 252 254 255 256 257 257 258 260 262 264 266 268 270 272 273 274 274 275 276 276 276 276
279 279 278 277 277 277 276 276 276 276 276 275 275 275 275 274 274 274 273 272 272 271 270 270 269 268 267 266 263 259 253 247 244 243 240 235 233 233 234 234 235 233 231 230 230 230 230 228 226 227 230 232 234 236 239 240 241 244 247 248 250 251 252 254 255 255 256 257 259 260 262 264 266 268 269 271 272 273 273 273 273 273 273 273 274
280 279 279 279 278 278 278 278 277 277 277 276 276 275 274 274 273 272 272 271 270 269 269 267 266 265 264 262 260 257 252 245 241 241 240 236 232 231 232 233 233 233 232 230 229 230 231 231 230 229 231 233 234 236 238 240 241 243 246 247 249 250 252 253 254 256 256 257 258 259 261 262 264 266 268 269 270 270 270 270 270 270 270 271 273
281 281 281 280 280 280 280 279 279 279 278 277 277 276 275 274 273 272 270 270 268 267 266 265 264 263 261 259 257 255 251 245 240 238 239 237 232 230 230 232 233 233 232 230 228 228 230 231 232 232 232 234 235 237 238 239 240 241 242 244 245 248 251 252 253 254 256 257 258 258 260 261 263 265 266 267 268 269 269 270 270 270 271 271 273
282 282 282 282 282 281 281 281 280 280 279 279 278 277 276 275 273 272 270 269 267 266 264 263 262 261 259 257 255 253 250 246 241 237 237 237 234 230 228 229 231 232 232 230 228 228 228 230 231 233 234 235 236 237 239 239 240 240 241 241 243 246 249 252 253 254 255 256 257 258 259 261 263 264 266 266 267 269 269 270 271 271 272 272 273
283 283 283 283 283 282 282 282 281 281 280 280 279 278 277 275 274 273 271 269 267 265 263 261 259 258 257 256 254 251 249 246 242 238 235 236 236 232 228 227 229 230 231 230 229 227 227 229 230 232 234 235 236 238 239 239 240 240 241 241 242 244 246 249 252 254 255 256 258 259 260 261 262 264 265 266 267 268 268 269 270 271 272 272 273
285 285 285 285 284 284 284 283 283 282 281 281 280 278 277 276 274 273 271 269 267 265 263 261 259 257 255 254 253 251 248 246 243 240 236 235 236 235 230 227 227 228 229 229 229 228 227 228 230 232 233 235 237 238 239 239 240 241 242 242 243 244 245 247 249 252 254 256 258 260 261 262 262 263 265 265 266 267 269 270 270 270 271 271 272
287 287 287 286 286 286 285 285 284 284 283 282 281 280 279 277 275 273 271 269 267 265 263 261 259 257 255 253 252 250 248 246 243 241 238 235 235 235 233 229 226 227 228 228 228 228 228 228 230 232 233 235 236 237 238 239 240 241 243 244 244 245 246 247 248 250 252 254 256 258 260 261 261 262 263 264 266 267 269 269 270 270 270 271 272
289 289 289 289 289 288 288 287 286 285 284 283 282 281 280 279 277 275 272 269 267 265 263 261 259 258 256 253 252 250 248 246 244 242 240 237 234 234 235 232 228 226 227 228 228 228 228 228 230 232 233 234 236 237 238 239 239 240 241 243 244 244 245 246 247 249 250 252 253 255 257 259 260 260 261 262 264 266 267 267 268 269 269 270 272
292 292 292 292 292 292 291 290 289 288 286 285 283 282 281 280 279 278 275 272 268 265 263 261 259 257 256 254 252 250 249 247 245 242 240 238 236 234 234 233 230 227 226 227 227 227 228 228 229 231 233 234 235 236 237 238 239 240 241 242 243 244 245 245 246 248 250 251 253 254 256 257 258 259 260 261 262 263 264 265 266 267 268 269 270
293 293 293 293 294 294 294 294 293 291 289 287 285 283 282 280 280 279 277 276 273 269 265 262 259 257 255 254 253 252 249 248 246 244 241 239 237 234 233 232 231 229 227 227 227 227 228 228 229 231 232 234 235 236 237 238 239 240 241 242 244 245 246 247 248 249 250 251 252 254 255 256 257 259 260 260 261 261 262 263 264 266 267 269 270
294 294 294 294 295 295 296 296 296 295 294 292 290 287 284 282 280 279 278 276 275 273 269 266 261 257 255 254 253 253 251 249 247 245 243 241 238 236 233 232 231 230 228 227 227 227 228 228 229 230 232 233 235 236 237 238 239 240 242 243 244 245 247 248 249 249 250 252 253 254 254 255 256 258 259 260 261 261 262 263 264 266 267 268 270
296 297 298 298 298 297 297 296 296 296 297 296 295 293 290 286 282 280 279 277 276 274 272 269 266 261 257 254 253 252 252 251 249 246 245 243 240 238 234 232 231 231 229 228 227 228 228 229 229 230 231 233 234 236 237 238 239 240 242 243 244 245 247 248 249 250 250 251 253 254 255 256 256 257 258 259 261 262 263 264 265 266 267 269 270
301 301 302 301 301 300 298 296 295 295 295 296 296 296 295 292 289 285 282 279 277 275 273 271 268 265 261 258 255 253 252 251 250 248 246 244 243 240 237 233 232 231 230 229 228 228 229 229 229 230 231 233 234 235 237 238 239 240 242 243 244 245 247 248 249 250 251 251 252 254 255 256 257 258 259 260 261 262 264 265 266 267 268 270 271
304 304 304 304 303 302 301 298 296 294 293 293 294 294 295 295 294 291 287 284 280 277 275 272 270 267 264 261 258 255 253 251 251 250 248 246 244 242 240 236 233 232 232 231 229 229 229 230 230 231 231 233 234 235 236 238 239 240 241 243 244 245 247 248 249 250 252 252 253 254 255 256 257 258 259 260 261 263 264 265 267 268 270 271 272
305 305 306 306 306 306 306 304 303 301 299 297 296 296 295 294 294 293 292 289 286 281 277 274 271 269 267 264 261 258 256 253 251 250 249 248 246 244 242 240 237 234 233 233 232 231 230 230 230 231 232 233 234 235 236 237 239 240 241 242 244 245 246 248 249 250 252 253 254 255 256 256 257 258 259 260 261 263 264 265 267 268 270 271 272
307 308 308 309 310 311 311 311 311 310 309 307 305 303 300 298 296 295 293 292 290 287 283 278 274 270 268 266 263 261 259 257 254 252 250 249 248 246 244 243 240 237 235 234 234 234 232 231 231 232 232 233 234 235 236 237 238 240 241 242 244 245 246 247 248 250 251 252 254 255 256 257 258 259 260 261 262 263 264 265 267 268 269 270 271
308 309 310 312 313 314 315 315 315 315 315 314 313 312 310 307 303 300 297 294 292 290 287 284 280 275 271 268 266 263 261 259 257 255 253 251 249 247 246 245 243 241 239 237 236 236 235 234 233 233 233 234 234 235 237 237 238 239 241 242 243 245 246 247 248 249 250 252 253 254 256 257 258 260 261 262 263 264 265 266 267 268 269 270 271
310 311 313 314 316 317 317 317 318 318 318 318 317 316 315 313 311 308 305 301 297 293 290 287 285 281 276 272 269 266 263 261 259 258 255 253 251 249 248 246 245 243 242 240 238 237 237 237 236 236 235 235 235 236 237 238 239 240 241 242 243 244 245 247 248 249 251 252 253 254 255 256 258 259 260 262 263 264 265 266 267 268 269 270 271
312 314 315 316 317 318 319 320 320 320 320 320 319 319 319 318 317 316 313 310 306 301 296 292 288 285 282 278 273 269 266 263 261 259 258 256 254 252 250 248 247 245 244 243 242 240 239 238 238 238 238 237 237 237 238 239 240 241 242 242 243 244 245 246 247 249 250 251 253 254 255 256 257 259 260 261 262 264 265 266 267 268 269 270 271
314 316 317 319 319 320 321 322 321 322 322 322 322 322 322 321 320 319 317 315 313 308 304 299 293 289 286 283 279 275 271 266 263 261 259 258 256 255 253 251 250 248 246 245 244 243 242 241 240 240 240 240 240 240 240 240 241 241 242 243 244 245 246 247 248 248 249 251 252 253 254 255 257 258 259 260 261 262 263 264 265 266 267 269 270
316 317 319 320 321 322 322 323 323 323 323 323 323 323 322 322 321 320 319 317 316 314 311 307 302 296 290 287 283 280 277 273 268 264 261 260 258 257 255 253 252 250 249 248 246 245 244 243 242 242 241 241 241 242 242 242 242 243 243 244 245 246 247 248 249 250 250 251 252 253 254 255 256 257 258 259 260 261 262 263 264 265 266 267 268
317 318 320 321 322 323 323 324 324 324 324 324 324 324 323 323 322 321 321 320 319 318 316 314 310 306 301 294 288 284 281 278 275 270 266 262 260 258 257 256 254 252 251 250 249 248 246 245 244 244 243 243 243 243 243 243 244 244 245 245 246 247 248 249 250 251 252 252 253 254 255 256 257 258 258 259 260 261 262 263 264 265 265 266 267
317 319 320 322 323 324 324 325 326 326 326 326 326 326 325 325 324 323 323 322 321 320 319 317 314 312 309 305 299 292 286 281 279 277 273 268 264 261 259 258 257 255 253 252 251 250 249 248 247 246 245 245 244 244 244 244 245 245 246 246 247 248 248 249 250 251 252 253 254 255 256 257 258 259 259 260 261 262 262 263 264 265 265 266 267
317 319 322 323 324 325 326 326 327 328 329 329 328 328 328 327 326 325 324 323 322 321 320 319 317 315 313 310 307 302 296 289 283 280 278 275 271 266 262 259 258 257 256 255 253 252 251 250 250 249 248 247 246 246 246 245 246 246 246 247 248 248 249 250 251 252 253 253 254 255 256 257 258 259 260 261 262 262 263 264 265 266 266 267 268
317 320 322 323 324 326 327 328 329 330 330 330 330 330 330 329 328 327 325 324 323 322 321 321 320 318 316 313 311 309 305 300 293 287 282 279 276 273 269 264 261 259 257 257 256 254 253 252 251 251 250 250 249 248 248 247 247 247 247 248 248 249 249 250 251 252 253 254 255 256 257 258 258 259 260 261 262 263 264 265 266 266 267 268 269
317 319 321 323 325 326 327 328 329 330 331 331 332 331 331 330 330 329 327 326 325 324 323 323 322 321 320 318 316 313 310 307 302 297 290 284 280 277 274 271 267 263 260 258 257 257 256 255 253 252 252 251 251 251 250 250 249 249 249 249 249 249 250 250 251 252 253 253 254 255 256 257 258 259 260 261 262 263 264 265 266 266 267 268 269
317 320 322 324 325 326 327 328 329 330 331 331 332 332 333 332 331 330 329 328 327 326 325 325 325 325 324 322 319 317 314 311 308 304 299 293 287 282 278 276 273 270 266 262 260 258 257 257 256 255 254 253 253 252 252 251 251 251 251 251 251 251 251 252 252 252 253 254 254 255 256 257 258 259 260 261 262 263 263 264 265 266 267 268 269
Height
10643 10643 10643 10644 10644 10644 10644 10644 10644 10643 10643 10642 10641 10639 10636 10634 10631 10628 10625 10623 10622 10621 10621 10622 10623 10626 10628 10630 10632 10635 10639 10643 10647 10651 10652 10653 10656 10658 10661 10663 10665 10667 10670 10673 10675 10677 10678 10679 10679 10679 10679 10679 10680 10680 10680 10681 10681 10681 10680 10681 10682 10682 10682 10682 10682 10682 10682 10682 10683 10681 10680 10682 10683 10681 10679 10681 10681 10679 10678 10678 10676 10675 10675 10674 10673
10636 10636 10637 10638 10638 10638 10638 10638 10638 10637 10637 10637 10636 10633 10631 10628 10626 10623 10619 10617 10616 10614 10613 10613 10615 10618 10622 10625 10628 10631 10636 10640 10643 10647 10647 10648 10649 10651 10654 10656 10657 10660 10664 10666 10668 10670 10672 10673 10674 10674 10674 10674 10674 10674 10675 10676 10676 10676 10675 10676 10677 10677 10678 10677 10677 10678 10678 10678 10679 10677 10675 10676 10678 10676 10675 10676 10677 10675 10674 10673 10672 10671 10671 10670 10669
10630 10630 10630 10631 10632 10632 10632 10632 10632 10631 10631 10631 10630 10628 10626 10623 10621 10618 10614 10612 10610 10608 10607 10606 10607 10610 10614 10620 10624 10627 10632 10636 10639 10641 10642 10641 10641 10643 10645 10647 10650 10654 10658 10660 10663 10665 10666 10667 10668 10668 10668 10668 10668 10669 10670 10671 10671 10671 10670 10670 10671 10673 10673 10672 10672 10673 10673 10673 10674 10673 10671 10672 10673 10672 10671 10672 10673 10672 10670 10669 10668 10667 10666 10665 10664
10624 10623 10624 10625 10625 10626 10626 10626 10626 10626 10626 10625 10625 10623 10621 10618 10615 10613 10610 10607 10604 10603 10602 10601 10601 10602 10606 10613 10619 10621 10626 10632 10634 10635 10635 10635 10634 10636 10638 10640 10644 10648 10652 10655 10657 10658 10658 10659 10661 10662 10661 10661 10662 10664 10664 10664 10664 10664 10664 10663 10665 10667 10668 10667 10667 10668 10667 10667 10668 10669 10668 10669 10669 10668 10666 10667 10669 10668 10666 10665 10665 10663 10662 10661 10659
10617 10618 10618 10618 10619 10620 10620 10620 10620 10620 10619 10619 10619 10618 10615 10613 10610 10607 10605 10602 10600 10598 10597 10596 10596 10596 10598 10605 10610 10613 10617 10622 10624 10626 10628 10629 10629 10630 10632 10634 10637 10640 10645 10647 10648 10649 10650 10651 10653 10655 10655 10654 10656 10657 10657 10658 10658 10658 10659 10658 10659 10661 10662 10662 10662 10663 10662 10660 10662 10662 10663 10665 10665 10663 10662 10662 10663 10664 10662 10660 10660 10659 10657 10656 10655
10611 10612 10612 10612 10613 10613 10613 10613 10613 10613 10612 10612 10612 10612 10610 10608 10605 10602 10600 10598 10596 10594 10593 10591 10591 10591 10592 10596 10601 10605 10607 10608 10610 10615 10620 10623 10624 10625 10627 10628 10629 10632 10636 10636 10636 10639 10643 10644 10646 10648 10648 10647 10648 10650 10651 10652 10652 10653 10653 10654 10654 10655 10656 10656 10657 10658 10657 10655 10655 10655 10656 10659 10658 10656 10658 10658 10658 10659 10657 10656 10655 10654 10653 10651 10649
10605 10606 10606 10606 10606 10607 10607 10607 10606 10606 10605 10605 10605 10605 10604 10603 10601 10598 10595 10593 10591 10590 10588 10587 10587 10587 10587 10590 10594 10598 10600 10600 10602 10608 10614 10617 10618 10619 10620 10621 10622 10624 10625 10624 10626 10631 10635 10636 10639 10640 10640 10640 10641 10643 10644 10645 10646 10646 10647 10648 10649 10650 10651 10652 10653 10653 10652 10649 10648 10648 10649 10651 10649 10648 10651 10653 10653 10652 10652 10651 10651 10649 10648 10647 10644
10599 10599 10599 10599 10600 10600 10600 10600 10600 10599 10598 10598 10597 10597 10597 10597 10596 10594 10591 10589 10587 10585 10584 10583 10583 10582 10582 10584 10588 10592 10593 10594 10596 10601 10607 10610 10611 10612 10613 10613 10614 10615 10616 10616 10619 10624 10627 10629 10632 10633 10632 10633 10635 10636 10637 10639 10640 10640 10640 10641 10643 10646 10648 10647 10647 10648 10647 10645 10643 10642 10642 10642 10642 10643 10644 10646 10648 10647 10646 10646 10646 10643 10642 10642 10639
10591 10591 10592 10592 10593 10593 10593 10593 10593 10593 10592 10591 10591 10590 10590 10590 10590 10589 10587 10585 10583 10581 10579 10578 10578 10578 10578 10578 10581 10585 10587 10588 10590 10594 10600 10602 10604 10605 10604 10604 10605 10606 10608 10611 10614 10618 10621 10624 10627 10627 10626 10628 10630 10629 10629 10632 10634 10634 10634 10635 10638 10641 10643 10641 10642 10643 10642 10641 10640 10637 10634 10633 10634 10636 10638 10639 10642 10642 10640 10640 10640 10638 10637 10636 10633
10583 10584 10585 10585 10586 10586 10586 10587 10586 10586 10585 10584 10584 10584 10583 10583 10583 10583 10582 10580 10579 10577 10575 10574 10573 10573 10573 10573 10575 10578 10580 10581 10583 10587 10592 10595 10597 10598 10596 10596 10598 10599 10602 10604 10606 10610 10615 10620 10621 10620 10620 10623 10624 10623 10624 10627 10629 10629 10629 10629 10631 10635 10636 10635 10636 10637 10636 10636 10637 10633 10629 10626 10626 10628 10631 10631 10633 10635 10634 10633 10634 10633 10630 10629 10628
10576 10577 10577 10577 10578 10578 10579 10579 10579 10579 10578 10578 10577 10577 10576 10576 10576 10576 10575 10575 10574 10573 10571 10569 10568 10568 10568 10568 10569 10571 10572 10574 10576 10579 10584 10587 10590 10590 10589 10590 10592 10594 10595 10597 10599 10602 10608 10614 10615 10613 10613 10616 10617 10618 10620 10622 10623 10623 10622 10623 10626 10629 10629 10629 10630 10631 10630 10631 10631 10629 10626 10623 10621 10622 10623 10623 10624 10626 10627 10626 10627 10626 10624 10622 10622
10569 10569 10569 10570 10570 10570 10571 10571 10572 10572 10572 10571 10570 10569 10569 10569 10568 10568 10568 10568 10568 10567 10566 10565 10563 10562 10562 10563 10563 10564 10565 10566 10568 10572 10576 10580 10583 10584 10583 10584 10586 10588 10589 10591 10593 10596 10602 10607 10606 10603 10605 10609 10611 10613 10615 10616 10616 10616 10615 10618 10621 10622 10622 10622 10624 10625 10625 10625 10625 10625 10622 10620 10618 10617 10616 10614 10615 10619 10621 10620 10619 10619 10618 10616 10615
10561 10562 10562 10562 10562 10562 10563 10563 10564 10564 10564 10564 10563 10562 10561 10561 10560 10560 10560 10560 10561 10561 10560 10559 10558 10557 10556 10556 10557 10558 10558 10559 10561 10564 10568 10572 10576 10577 10576 10577 10579 10581 10582 10585 10587 10590 10595 10599 10598 10596 10599 10603 10605 10606 10607 10608 10609 10609 10610 10613 10615 10615 10615 10616 10618 10619 10619 10619 10619 10619 10618 10617 10616 10613 10609 10605 10606 10610 10613 10613 10611 10611 10612 10610 10608
10554 10554 10554 10554 10554 10555 10555 10555 10556 10556 10556 10556 10555 10554 10554 10553 10553 10553 10552 10552 10553 10553 10553 10553 10552 10551 10550 10550 10550 10551 10551 10551 10553 10556 10559 10563 10567 10569 10569 10570 10572 10573 10576 10579 10582 10584 10587 10590 10590 10591 10594 10597 10598 10597 10598 10599 10600 10602 10605 10607 10608 10608 10608 10609 10610 10611 10611 10611 10613 10614 10614 10613 10610 10607 10604 10601 10600 10601 10603 10604 10603 10603 10604 10603 10601
10547 10546 10546 10546 10546 10546 10547 10547 10547 10547 10547 10547 10547 10546 10546 10546 10545 10545 10545 10545 10545 10545 10546 10546 10546 10545 10543 10543 10543 10543 10544 10544 10545 10547 10550 10553 10557 10560 10561 10562 10564 10566 10569 10573 10576 10579 10581 10583 10584 10585 10587 10589 10589 10589 10589 10590 10592 10596 10598 10599 10599 10600 10601 10601 10602 10603 10603 10604 10606 10607 10607 10607 10602 10598 10599 10599 10597 10595 10595 10596 10594 10594 10596 10596 10594
10539 10538 10538 10538 10538 10538 10538 10538 10538 10538 10538 10539 10538 10538 10538 10537 10537 10537 10537 10537 10537 10537 10538 10538 10538 10538 10537 10536 10535 10535 10536 10537 10538 10539 10541 10543 10546 10550 10552 10554 10557 10560 10562 10565 10570 10574 10575 10576 10578 10578 10580 10581 10582 10583 10583 10582 10585 10588 10589 10589 10590 10592 10594 10594 10594 10595 10595 10597 10598 10598 10599 10599 10594 10591 10593 10593 10591 10590 10590 10590 10587 10586 10588 10589 10587
10530 10530 10530 10530 10530 10529 10529 10529 10529 10529 10529 10529 10529 10529 10529 10529 10529 10528 10528 10528 10528 10528 10529 10529 10530 10530 10530 10529 10528 10527 10528 10529 10531 10531 10532 10534 10536 10539 10543 10546 10549 10552 10555 10558 10563 10566 10567 10569 10570 10570 10572 10573 10575 10578 10577 10575 10577 10578 10579 10580 10580 10582 10585 10587 10587 10588 10588 10589 10590 10590 10590 10590 10587 10586 10586 10586 10585 10584 10584 10583 10578 10578 10582 10583 10580
10522 10522 10521 10521 10521 10521 10520 10520 10520 10520 10519 10519 10519 10519 10519 10519 10519 10519 10519 10519 10519 10519 10519 10520 10521 10522 10522 10521 10520 10519 10520 10522 10524 10524 10524 10525 10527 10529 10532 10537 10540 10544 10548 10551 10554 10556 10558 10561 10562 10564 10566 10567 10568 10570 10569 10569 10570 10570 10571 10572 10572 10573 10577 10579 10580 10581 10581 10581 10582 10582 10581 10581 10580 10579 10579 10579 10579 10580 10580 10576 10569 10568 10574 10576 10573
10515 10514 10513 10512 10512 10511 10511 10510 10510 10510 10509 10509 10509 10509 10509 10509 10509 10509 10509 10508 10508 10509 10509 10510 10511 10512 10513 10513 10512 10511 10511 10513 10516 10516 10516 10517 10519 10520 10522 10527 10531 10535 10540 10544 10546 10548 10551 10554 10555 10558 10559 10558 10559 10561 10561 10562 10563 10562 10563 10564 10564 10566 10569 10571 10572 10573 10574 10574 10574 10573 10572 10572 10573 10573 10573 10573 10573 10573 10574 10572 10565 10562 10564 10566 10566
10507 10505 10504 10503 10503 10502 10501 10501 10500 10500 10499 10499 10498 10498 10498 10498 10499 10499 10499 10498 10498 10499 10499 10500 10501 10502 10503 10504 10503 10502 10502 10504 10506 10507 10508 10509 10511 10512 10514 10517 10522 10526 10531 10535 10538 10541 10545 10546 10546 10548 10550 10549 10551 10553 10553 10555 10555 10554 10554 10556 10558 10559 10561 10563 10565 10567 10567 10567 10566 10565 10565 10565 10566 10566 10566 10565 10565 10566 10567 10566 10563 10560 10558 10557 10558
10497 10496 10495 10494 10493 10492 10491 10491 10490 10489 10488 10488 10488 10487 10487 10487 10487 10488 10488 10488 10488 10488 10488 10489 10491 10491 10493 10494 10494 10494 10494 10494 10496 10497 10499 10501 10503 10504 10505 10508 10512 10516 10521 10525 10530 10534 10535 10534 10535 10539 10541 10542 10542 10543 10544 10547 10548 10547 10547 10548 10550 10551 10554 10556 10558 10558 10558 10558 10557 10557 10558 10558 10558 10558 10558 10557 10558 10559 10560 10558 10556 10556 10554 10551 10550
10487 10486 10485 10484 10483 10482 10481 10480 10479 10478 10478 10477 10476 10476 10476 10476 10476 10476 10476 10476 10477 10477 10477 10478 10479 10480 10481 10483 10484 10484 10485 10485 10486 10487 10490 10492 10494 10495 10497 10499 10503 10507 10511 10516 10521 10524 10524 10525 10529 10532 10533 10532 10532 10533 10535 10539 10541 10540 10540 10541 10542 10544 10546 10547 10548 10548 10549 10549 10549 10549 10549 10549 10549 10548 10549 10549 10549 10550 10552 10551 10548 10548 10547 10545 10543
10476 10475 10475 10474 10472 10471 10470 10469 10468 10467 10466 10465 10465 10464 10464 10464 10464 10464 10464 10464 10465 10466 10466 10466 10467 10468 10470 10471 10472 10474 10475 10476 10476 10477 10479 10482 10484 10487 10488 10490 10493 10498 10502 10506 10509 10511 10513 10517 10520 10521 10521 10521 10522 10523 10526 10530 10531 10531 10532 10533 10534 10535 10536 10536 10537 10539 10539 10539 10540 10540 10538 10538 10539 10538 10538 10540 10541 10541 10542 10542 10540 10540 10540 10538 10535
10465 10464 10463 10462 10461 10460 10458 10457 10456 10455 10454 10453 10453 10452 10451 10451 10451 10451 10451 10452 10452 10453 10454 10454 10455 10456 10457 10458 10460 10462 10464 10465 10465 10467 10469 10471 10474 10477 10480 10482 10484 10488 10491 10494 10497 10500 10502 10506 10508 10509 10509 10511 10512 10513 10515 10518 10520 10521 10523 10524 10525 10526 10527 10527 10527 10527 10528 10528 10530 10530 10529 10528 10529 10528 10529 10531 10532 10532 10533 10533 10531 10531 10531 10529 10526
10454 10452 10451 10450 10448 10447 10446 10444 10443 10443 10442 10441 10440 10439 10438 10438 10438 10438 10438 10438 10439 10439 10440 10441 10442 10443 10444 10446 10447 10450 10452 10454 10455 10456 10458 10461 10464 10467 10470 10473 10475 10477 10480 10483 10487 10490 10493 10496 10498 10500 10500 10501 10502 10503 10505 10507 10510 10512 10514 10515 10516 10516 10516 10516 10516 10516 10517 10518 10520 10521 10521 10520 10520 10520 10521 10522 10522 10522 10523 10524 10524 10523 10522 10520 10518
10443 10441 10439 10437 10436 10435 10433 10431 10430 10429 10429 10427 10426 10425 10424 10424 10424 10424 10424 10425 10425 10426 10427 10428 10429 10430 10431 10433 10435 10437 10439 10442 10444 10445 10447 10450 10453 10456 10460 10463 10465 10467 10469 10473 10477 10480 10483 10486 10489 10491 10491 10492 10494 10495 10496 10498 10501 10503 10504 10504 10504 10504 10504 10504 10505 10506 10507 10508 10510 10511 10512 10513 10513 10513 10513 10513 10512 10511 10511 10512 10514 10514 10513 10511 10509
10432 10429 10427 10425 10423 10422 10420 10418 10417 10416 10415 10413 10412 10411 10410 10410 10410 10411 10411 10411 10412 10413 10413 10414 10415 10417 10418 10420 10422 10425 10427 10430 10432 10434 10436 10439 10441 10445 10449 10452 10455 10457 10459 10462 10466 10470 10473 10476 10477 10479 10481 10482 10484 10485 10487 10489 10491 10492 10492 10492 10492 10493 10493 10494 10494 10496 10497 10498 10500 10501 10503 10504 10505 10505 10505 10504 10503 10503 10502 10500 10500 10502 10503 10503 10501
10421 10419 10416 10414 10412 10410 10408 10407 10405 10403 10401 10400 10399 10398 10397 10396 10396 10397 10397 10398 10398 10399 10400 10401 10402 10404 10405 10407 10410 10413 10415 10418 10421 10423 10425 10427 10430 10433 10437 10441 10444 10447 10449 10452 10455 10459 10463 10465 10466 10467 10469 10470 10472 10474 10476 10479 10480 10481 10480 10480 10481 10483 10483 10484 10484 10485 10486 10487 10489 10491 10493 10496 10496 10496 10496 10496 10494 10494 10493 10492 10490 10490 10491 10491 10491
10410 10408 10406 10403 10401 10398 10396 10395 10393 10391 10389 10387 10385 10384 10383 10382 10382 10383 10383 10384 10384 10385 10386 10387 10388 10390 10392 10394 10397 10400 10403 10406 10409 10412 10414 10416 10418 10422 10425 10429 10433 10436 10438 10441 10444 10447 10451 10454 10455 10456 10458 10459 10461 10463 10465 10468 10470 10469 10469 10469 10471 10472 10473 10474 10475 10475 10476 10477 10479 10480 10482 10485 10487 10486 10486 10486 10485 10483 10483 10483 10482 10481 10480 10480 10479
10400 10397 10395 10392 10390 10387 10385 10383 10382 10380 10378 10375 10372 10371 10370 10370 10369 10370 10370 10370 10370 10371 10372 10373 10374 10376 10378 10380 10383 10386 10390 10393 10397 10400 10402 10405 10408 10410 10414 10417 10421 10425 10428 10430 10433 10436 10439 10442 10444 10446 10447 10449 10451 10452 10454 10457 10458 10458 10457 10459 10461 10463 10464 10465 10466 10466 10467 10468 10469 10470 10471 10473 10475 10477 10477 10477 10475 10474 10472 10472 10471 10470 10470 10469 10467
10390 10387 10384 10381 10379 10377 10374 10372 10371 10369 10368 10366 10363 10360 10358 10357 10357 10358 10358 10358 10358 10358 10359 10360 10362 10363 10365 10367 10369 10372 10375 10379 10383 10386 10390 10393 10396 10399 10402 10405 10409 10413 10416 10419 10422 10425 10428 10431 10433 10435 10437 10439 10440 10442 10444 10446 10447 10447 10447 10449 10452 10454 10455 10456 10456 10457 10458 10459 10460 10460 10460 10462 10464 10466 10467 10467 10466 10465 10463 10461 10460 10458 10457 10457 10456
10381 10377 10374 10372 10369 10367 10364 10362 10361 10359 10357 10356 10354 10351 10349 10347 10346 10346 10347 10348 10347 10347 10347 10349 10350 10352 10353 10354 10356 10358 10361 10365 10369 10372 10376 10380 10384 10387 10390 10393 10397 10400 10404 10407 10410 10413 10416 10419 10421 10424 10426 10428 10430 10431 10433 10435 10436 10436 10437 10438 10440 10442 10444 10445 10446 10446 10447 10448 10450 10450 10450 10450 10452 10455 10456 10457 10456 10455 10453 10451 10450 10448 10447 10446 10447
10372 10369 10366 10363 10360 10357 10355 10353 10351 10349 10348 10346 10344 10343 10341 10339 10337 10335 10335 10336 10337 10337 10337 10337 10339 10341 10342 10342 10344 10346 10349 10352 10355 10359 10362 10366 10370 10374 10378 10381 10384 10388 10391 10394 10398 10401 10404 10406 10409 10412 10414 10417 10419 10420 10422 10423 10424 10425 10426 10427 10427 10429 10431 10434 10435 10436 10437 10437 10438 10439 10439 10440 10441 10443 10444 10446 10446 10445 10444 10442 10441 10439 10438 10438 10438
10366 10363 10360 10357 10353 10350 10347 10345 10342 10340 10338 10337 10336 10334 10332 10331 10330 10328 10326 10326 10325 10326 10327 10327 10329 10331 10332 10332 10333 10335 10337 10340 10343 10346 10349 10352 10356 10361 10365 10368 10371 10375 10378 10382 10385 10388 10391 10394 10397 10400 10402 10405 10407 10409 10411 10412 10413 10414 10415 10416 10417 10418 10420 10423 10425 10426 10427 10427 10427 10428 10429 10430 10431 10431 10432 10433 10434 10434 10433 10433 10431 10430 10429 10428 10428
10359 10356 10354 10351 10348 10344 10341 10338 10335 10332 10330 10328 10327 10326 10324 10323 10321 10320 10319 10318 10316 10316 10316 10317 10319 10321 10322 10322 10323 10325 10327 10329 10331 10334 10337 10340 10343 10347 10351 10355 10358 10362 10365 10369 10373 10376 10379 10382 10384 10387 10390 10393 10395 10398 10399 10401 10402 10403 10405 10406 10407 10408 10409 10411 10414 10416 10417 10417 10417 10417 10418 10419 10420 10420 10420 10420 10421 10421 10421 10421 10420 10419 10418 10417 10417
10353 10350 10347 10345 10342 10339 10336 10333 10330 10327 10324 10321 10319 10318 10317 10315 10314 10313 10311 10310 10309 10308 10308 10308 10308 10310 10312 10313 10314 10315 10317 10318 10321 10323 10326 10328 10331 10335 10339 10342 10345 10349 10353 10356 10360 10363 10366 10369 10372 10375 10378 10380 10383 10385 10388 10390 10391 10393 10394 10395 10396 10397 10399 10400 10402 10404 10405 10406 10406 10406 10407 10408 10408 10408 10408 10408 10408 10408 10408 10408 10408 10407 10407 10406 10405
10348 10345 10342 10339 10336 10334 10331 10328 10325 10322 10319 10316 10314 10311 10309 10308 10306 10305 10304 10303 10302 10301 10301 10300 10300 10300 10302 10304 10305 10306 10307 10309 10310 10313 10316 10318 10320 10323 10327 10330 10333 10336 10340 10343 10347 10350 10354 10357 10360 10362 10365 10368 10370 10373 10376 10378 10380 10381 10382 10384 10385 10387 10388 10389 10390 10392 10393 10395 10395 10395 10396 10396 10396 10396 10396 10397 10397 10396 10396 10396 10395 10395 10395 10394 10393
10343 10340 10337 10334 10331 10328 10326 10323 10321 10318 10315 10312 10309 10307 10304 10302 10300 10298 10297 10296 10295 10294 10294 10293 10293 10292 10293 10294 10295 10296 10298 10300 10301 10303 10305 10308 10310 10312 10315 10319 10322 10325 10328 10331 10334 10338 10341 10344 10347 10350 10353 10355 10358 10360 10363 10365 10368 10370 10371 10372 10374 10375 10377 10378 10379 10380 10381 10382 10383 10384 10384 10384 10384 10384 10385 10385 10385 10385 10384 10384 10384 10383 10382 10381 10381
10339 10336 10333 10330 10327 10323 10320 10318 10315 10313 10310 10307 10304 10302 10299 10297 10295 10293 10291 10290 10288 10287 10286 10286 10286 10285 10285 10286 10287 10288 10289 10290 10292 10293 10295 10298 10300 10302 10304 10307 10310 10313 10316 10319 10322 10325 10328 10332 10335 10338 10340 10343 10345 10348 10350 10353 10355 10357 10359 10361 10362 10364 10365 10366 10368 10369 10370 10371 10371 10372 10372 10373 10373 10373 10373 10373 10373 10373 10373 10372 10372 10372 10371 10370 10369
10334 10331 10328 10325 10322 10319 10316 10313 10310 10308 10305 10302 10300 10297 10294 10292 10290 10288 10286 10284 10283 10281 10280 10279 10279 10279 10278 10278 10279 10280 10280 10281 10282 10284 10286 10288 10290 10292 10294 10296 10299 10302 10305 10308 10310 10313 10316 10319 10322 10325 10328 10331 10333 10336 10338 10340 10342 10345 10347 10349 10351 10353 10354 10355 10356 10357 10358 10359 10360 10360 10361 10361 10361 10361 10362 10362 10362 10362 10361 10361 10361 10360 10359 10358 10358
10331 10328 10325 10322 10319 10315 10312 10309 10306 10303 10301 10298 10295 10293 10290 10287 10285 10283 10281 10279 10278 10276 10274 10273 10272 10272 10272 10271 10271 10272 10273 10273 10274 10275 10277 10279 10280 10282 10284 10286 10288 10291 10293 10296 10299 10301 10304 10307 10310 10313 10315 10318 10321 10323 10326 10328 10330 10332 10334 10337 10339 10340 10342 10343 10344 10345 10346 10347 10348 10349 10349 10349 10350 10350 10350 10350 10350 10350 10349 10349 10348 10348 10347 10346 10345
10327 10324 10321 10318 10315 10312 10309 10306 10303 10300 10297 10294 10292 10289 10286 10283 10280 10278 10276 10274 10272 10271 10269 10268 10266 10265 10265 10264 10264 10264 10265 10266 10266 10266 10267 10269 10270 10272 10274 10276 10278 10280 10282 10285 10287 10290 10292 10295 10298 10301 10304 10306 10309 10311 10313 10315 10318 10320 10322 10324 10326 10328 10329 10330 10331 10333 10334 10335 10336 10337 10338 10338 10338 10338 10338 10338 10338 10337 10337 10336 10336 10335 10335 10334 10333
10323 10320 10317 10314 10311 10309 10306 10302 10299 10296 10294 10291 10288 10285 10282 10279 10277 10274 10272 10270 10267 10265 10264 10262 10261 10259 10258 10258 10257 10257 10258 10258 10259 10258 10259 10260 10261 10262 10264 10266 10267 10269 10271 10273 10276 10278 10281 10283 10286 10289 10292 10294 10296 10299 10301 10303 10305 10307 10309 10311 10313 10314 10316 10317 10319 10320 10322 10323 10324 10324 10325 10325 10325 10326 10326 10326 10326 10325 10325 10324 10323 10323 10322 10322 10320
10320 10317 10314 10310 10308 10305 10302 10299 10296 10293 10291 10288 10284 10281 10279 10276 10273 10271 10268 10266 10263 10261 10259 10257 10256 10254 10252 10251 10251 10250 10250 10251 10251 10251 10251 10251 10252 10253 10254 10255 10257 10259 10260 10262 10264 10267 10269 10271 10274 10276 10279 10281 10284 10286 10289 10291 10293 10295 10297 10298 10300 10301 10303 10304 10306 10307 10309 10310 10311 10311 10311 10312 10313 10314 10314 10313 10313 10313 10313 10312 10311 10311 10310 10310 10309
10317 10314 10311 10308 10305 10302 10299 10296 10293 10290 10287 10285 10282 10279 10276 10273 10270 10268 10265 10262 10259 10257 10255 10253 10251 10249 10247 10246 10245 10244 10243 10243 10243 10243 10243 10243 10243 10244 10244 10245 10247 10248 10250 10251 10253 10255 10257 10260 10262 10264 10266 10269 10271 10273 10276 10278 10280 10282 10284 10286 10287 10289 10290 10291 10293 10294 10295 10297 10297 10298 10298 10299 10300 10301 10300 10300 10300 10301 10300 10300 10299 10298 10298 10297 10297
10314 10311 10308 10305 10302 10299 10296 10293 10290 10287 10284 10281 10279 10276 10274 10271 10268 10264 10261 10258 10255 10253 10250 10248 10246 10244 10242 10240 10239 10238 10237 10236 10235 10235 10236 10236 10236 10235 10235 10236 10237 10238 10239 10241 10242 10244 10246 10248 10250 10252 10254 10256 10258 10260 10263 10265 10267 10269 10271 10273 10275 10276 10277 10279 10280 10281 10282 10283 10284 10284 10285 10286 10287 10287 10287 10287 10287 10287 10287 10286 10286 10285 10285 10285 10284
10311 10308 10305 10302 10299 10296 10293 10290 10287 10284 10281 10278 10275 10272 10270 10267 10264 10261 10258 10255 10252 10249 10247 10244 10242 10240 10238 10235 10233 10232 10231 10230 10229 10228 10227 10228 10228 10228 10227 10227 10227 10228 10229 10230 10232 10233 10235 10236 10238 10240 10242 10244 10246 10248 10250 10252 10254 10256 10258 10260 10261 10263 10264 10266 10267 10268 10269 10270 10271 10271 10272 10272 10273 10273 10273 10273 10273 10273 10273 10273 10272 10272 10272 10272 10271
10307 10305 10302 10299 10296 10293 10290 10287 10284 10281 10277 10274 10272 10269 10266 10263 10260 10258 10255 10252 10249 10246 10244 10241 10238 10236 10234 10232 10229 10226 10224 10224 10223 10222 10221 10219 10219 10219 10220 10219 10219 10219 10220 10220 10221 10223 10224 10225 10227 10228 10230 10232 10233 10235 10237 10239 10241 10243 10245 10246 10247 10249 10251 10252 10253 10254 10255 10256 10257 10258 10258 10259 10259 10260 10260 10260 10259 10260 10260 10260 10259 10259 10259 10258 10257
10304 10302 10299 10296 10294 10291 10287 10284 10281 10277 10274 10271 10268 10265 10262 10260 10257 10254 10251 10248 10246 10243 10240 10237 10235 10232 10229 10227 10225 10222 10219 10217 10216 10216 10215 10213 10212 10211 10211 10211 10211 10211 10211 10211 10211 10212 10213 10214 10216 10217 10218 10220 10221 10223 10224 10226 10228 10230 10231 10233 10234 10236 10237 10238 10239 10240 10241 10243 10243 10244 10244 10245 10246 10246 10246 10246 10246 10246 10246 10246 10246 10246 10245 10245 10244
10301 10298 10296 10293 10290 10288 10285 10281 10278 10275 10271 10268 10265 10262 10259 10256 10253 10250 10247 10244 10242 10239 10236 10234 10231 10228 10225 10222 10220 10218 10215 10212 10210 10209 10208 10207 10206 10205 10204 10203 10203 10203 10203 10202 10202 10202 10203 10204 10205 10206 10207 10208 10209 10211 10212 10214 10216 10217 10218 10220 10221 10222 10224 10225 10226 10226 10228 10229 10230 10230 10231 10232 10232 10233 10233 10233 10233 10233 10233 10233 10233 10232 10232 10231 10230
10298 10295 10292 10290 10287 10284 10281 10278 10275 10272 10269 10265 10262 10258 10255 10252 10250 10247 10244 10241 10238 10235 10232 10229 10227 10224 10222 10219 10216 10214 10211 10208 10205 10203 10202 10201 10200 10198 10197 10196 10195 10194 10194 10194 10194 10194 10194 10194 10194 10195 10196 10197 10198 10199 10200 10202 10203 10204 10206 10207 10208 10209 10210 10212 10213 10213 10214 10215 10216 10217 10218 10218 10219 10219 10219 10219 10219 10219 10219 10219 10219 10219 10218 10218 10217